sat.trackr.live / text

‹ back to catalog

STARLINK-6261

NORAD 56417 · 2023-061AV

PAYLOAD ACTIVE UNKNOWN

§ Identity

Operator
Country
US
Launch date
2023-05-04
Launch site
AFETR
Launch vehicle
Mass (kg)
RCS (m²)

Purposes: comms

External: N2YO · Heavens-Above · Gunter

§ Orbital elements

Epoch: 2026-09-20T11:03:43.271136Z

Period
94.27 min
Inclination
43.0038°
Eccentricity
0.0001577
Mean motion
15.27577133 rev/d
Perigee alt
482.0 km
Apogee alt
484.1 km
Semi-major
6,861.2 km
B*
9.1357e-6
RAAN
166.9572°
Arg perigee
268.2246°
Mean anomaly
91.8425°
Rev number
18,666

§ Raw data

STARLINK-62611 56417U 23061AV  26263.46091749 -.00000011  00000+0  91357-5 0  99962 56417  43.0038 166.9572 0001577 268.2246  91.8425 15.27577133186666

JSON: /api/v1/satellites/56417 · /tle

For live sub-satellite position, see the globe view (requires WebGL).

§ Visibility from observer

Set your observer location to see the next 7 days of passes ≥ 10°. The values pass through the URL so the page stays shareable.

No JS? Fill the form by hand. The geolocation button needs JavaScript.